User: anonymous   Login
Location: Fort Wayne
(41.1310°N, 85.1290°W)
Time: 19:04:35
(UTC-05:00)
Language:

SL-08 RB Rocket - Orbit

View from above orbital plane
View from above orbital plane
View from above satellite
View from above satellite

Ground track
Ground track

The orbit data is extracted from the following two-line orbital elements,

1 26387U 00033D   14355.82638226  .00001523  00000-0  27558-3 0  6928
2 26387 098.0850 061.3295 0026059 341.9740 154.0895 14.67600659774604
Epoch (UTC): 21 December 2014 19:49:59
Eccentricity: 0.0026059
inclination: 98.0850°
perigee height: 650 km
apogee height: 687 km
right ascension of ascending node: 61.3295°
argument of perigee: 341.9740°
revolutions per day: 14.67600659
mean anomaly at epoch: 154.0895°
orbit number at epoch: 77460

The dashed part of the orbit path shows where the satellite is in the earth's shadow,  

DLR